Regional Weather Roundup
Issued by NWS Austin/San Antonio, TX

Home | Current Version | Previous Version | Text Only | Print | Product List | Glossary On
Versions: 1 2 3 4 5 6 7 8 9 10 11 12 13 14 15 16 17 18 19 20 21 22 23 24 25 26 27 28 29 30 31 32 33 34 35 36 37 38 39 40 41 42 43 44 45 46 47 48 49 50
000
ASUS44 KEWX 180302
RWREWX
SOUTH TEXAS REGIONAL WEATHER ROUNDUP
NATIONAL WEATHER SERVICE AUSTIN/SAN ANTONIO TX
900 PM CST SUN FEB 17 2019

NOTE: "FAIR" INDICATED FEW OR NO CLOUDS BELOW 12,000 FEET WITH NO
SIGNIFICANT WEATHER AND/OR OBSTRUCTIONS TO VISIBILITY.

* - THESE STATIONS ARE NOT NWS OR FAA STATIONS...AND ARE NOT SUBJECT
    TO NWS AND FAA QUALITY CONTROL.

TXZ171-172-183>190-180400-
TEXAS HILL COUNTRY AND EDWARDS PLATEAU

CITY           SKY/WX    TMP DP  RH WIND       PRES   REMARKS
JUNCTION       CLEAR     48  32  53 NE8       30.00R WCI  44
*LLANO         CLOUDY    52  34  50 NE6       30.05R
BURNET         CLOUDY    49  32  52 NE10      30.02R WCI  45
*HORSESHOE BAY CLOUDY    51  33  51 NE6       30.02R
*KERRVILLE     PTCLDY    51  33  50 NE8       29.97R
*FREDERICKSBRG CLOUDY    50  32  50 NE9       29.99R WCI  46
*ROCKSPRINGS   CLEAR     50  30  46 NE9       30.01R WCI  46
*BOERNE STAGE  CLOUDY    50  34  53 NE7       29.97R WCI  47
*CASTROVILLE   CLOUDY    57  33  40 NE13      29.97R
HONDO          PTCLDY    57  37  47 E8        29.94R
*UVALDE        PTCLDY    56  34  43 E9        29.94R
DEL RIO        CLEAR     61  31  32 NE12      29.90R
LAUGHLIN AFB   CLEAR     54  33  44 E6        29.91R
CARRIZO SPRGS  CLEAR     63  32  31 E5        29.93R
*FAITH RANCH   CLEAR     64  34  32 E10G16    29.92R
$$

TXZ173-191>194-202-209-217>225-228-180400-
CENTRAL AND SOUTH CENTRAL TEXAS

CITY           SKY/WX    TMP DP  RH WIND       PRES   REMARKS
GEORGETOWN     PTCLDY    48  33  56 N9        30.03R WCI  44
AUSTIN/BERGSTM MOCLDY    52  36  54 NE13      29.99R
AUSTIN/MABRY   PTCLDY    52  32  46 NE7       30.00R
*AUSTIN/EXEC   PTCLDY    48  36  61 N12       30.01R WCI  43
*LAGO VISTA    PTCLDY    49  28  43 NE14G23   30.00R WCI  44
SAN MARCOS     PTCLDY    50  36  58 NE12      29.99R WCI  46
NEW BRAUNFELS  CLOUDY    51  36  56 NE14      29.96R
RANDOLPH AFB   CLOUDY    53  36  51 NE12G21   29.96R
PT SAN ANTONIO CLOUDY    56  37  49 NE12      29.94R
SAN ANTONIO    CLOUDY    54  36  50 NE9       29.96R
STINSON FIELD  PTCLDY    56  35  45 NE9       29.94R
*LA GRANGE     PTCLDY    51  40  66 N7        29.96S
*GIDDINGS      PTCLDY    53  41  64 NE7       29.99R
*GONZALES      PTCLDY    51  40  66 N9        29.96R
$$

TXZ163>164-176>182-195>201-210>213-226-227-235-180400-
SOUTHEAST TEXAS

CITY           SKY/WX    TMP DP  RH WIND       PRES   REMARKS
COLLEGE STN    PTCLDY    50  37  61 NE15      29.99S WCI  45
*BRYAN         PTCLDY    47  36  64 N7        30.02R WCI  44
*CALDWELL      PTCLDY    49  37  63 N8        30.01R WCI  45
*CROCKETT        N/A     43  37  81 CALM      30.05F
*BRENHAM       PTCLDY    50  39  67 NE5       29.99S WCI  48
HUNTSVILLE     CLEAR     47  36  65 VRB3      30.01R
CONROE         CLEAR     50  43  77 NE8       30.00R WCI  47
HOUSTON BUSH   PTCLDY    52  44  74 NE13G20   29.98R
HOUSTON HOBBY  FAIR      54  42  64 N17G32    29.95R
*HOUSTON SW AP FAIR      53  42  67 NE14G20   29.96R
PEARLAND       FAIR      54  45  71 NE14      29.97R
HOUSTON HOOKS  FAIR      51  42  71 NE10      29.98R
ELLINGTON FLD  PTCLDY    54  43  66 N17       29.98R
SUGAR LAND     FAIR      55  43  63 NE16      29.95R
*HOUSTON EXEC  FAIR      48  45  87 NE9       29.98R WCI  44
*CLEVELAND MUN FAIR      48  44  85 NE3       30.02R
*WHARTON       CLEAR     52  41  65 N10G24    29.93S
*COLUMBUS      FAIR      51  39  63 N9        29.96R
*EAGLE LAKE    PTCLDY    50  43  78 NE10      29.95R WCI  46
$$

TXZ214>216-236>238-180400-
THE UPPER TEXAS COAST

CITY           SKY/WX    TMP DP  RH WIND       PRES   REMARKS
*ORANGE        CLOUDY    50  46  87 N9        29.99R WCI  47
PORT ARTHUR    CLOUDY    51  43  74 N18       29.97R
GALVESTON      FAIR      55  45  68 N29G36    29.94R
ANGLETON       FAIR      54  46  74 N13       29.92R
*BAY CITY      CLEAR     56  47  73 NE10      29.91R
PALACIOS       CLEAR     55  47  74 N10       29.93R
$$

TXZ229>234-239>247-180400-
TEXAS COASTAL BEND AND RIO GRANDE PLAINS

CITY           SKY/WX    TMP DP  RH WIND       PRES   REMARKS
VICTORIA       CLEAR     54  43  66 N13       29.94R
*BEEVILLE      CLEAR     58  41  53 N8        29.93R
ROCKPORT       CLEAR     57  48  72 NE14      29.93R
*PORT ARANSAS  CLEAR     59  48  66 N21       29.93R
*PORT LAVACA   CLEAR     57  47  69 NE16G22   29.94R
*INGLESIDE     CLEAR     59  48  66 NE12      29.93R
CORPUS CHRISTI PTCLDY    60  45  57 NE15      29.92R
CORPUS NAS     CLEAR     63  51  65 NE20      29.91R
*ROBSTOWN      NOT AVBL
ALICE          CLEAR     59  42  53 NE10      29.93R
KINGSVILLE NAS CLEAR     62  44  51 N14       29.93R
COTULLA        CLEAR     59  37  44 E10       29.94R
LAREDO         CLEAR     66  32  28 NE15      29.92R
$$

TXZ248>255-180400-
DEEP SOUTH TEXAS

CITY           SKY/WX    TMP DP  RH WIND       PRES   REMARKS
BROWNSVILLE    CLOUDY    64  60  87 N14       29.88R
PORT ISABEL    CLOUDY    62  57  83 N17G24    29.87R
HARLINGEN      CLOUDY    64  54  69 NE20G26   29.88R
*HEBBRONVILLE  CLEAR     58  38  48 CALM      29.94R
MCALLEN        CLEAR     67  57  70 NE12G17   29.90R
*WESLACO       CLOUDY    63  53  69 NE10G17   29.89R
FALFURRIAS     CLEAR     61  44  52 NE7       29.91R
EDINBURG       FAIR      63  55  75 NE7       29.90R
*ZAPATA        FAIR      67  35  30 NE8       29.91R
$$

TXZ213>215-236>238-242>244-246-247-251-254-255-180400-
CMAN STATIONS

STATION/POSITION TIME  TEMP    WIND        PRES    WAVE
                       AIR SEA DIR/SP/G            HT/PER
                 (UTC) (F)     (DEG/KT/KT) (MB)    (FT/S)
SABINE PASS      0242   52 64   10/ 17/ 20 1016.0
SEA RIM ST PARK  0200   52      10/ 11/ 18 1013.7
NORTH JETTY/GLS  0242   54 60   20/ 25/ 28 1013.2
EAGLE POINT      0242   55 62   30/ 15/ 23 1014.6
MORGANS POINT    0242   54 60   10/  8/ 10 1014.8
PORT O`CONNOR    0224   58 62   20/ 19/ 22 1012.2
PORT ARANSAS     0200   61 61   20/ 22/ 24 1011.1
MALAQUITE BEACH  0236   61 62  360/ 20/ 26 1012.0
BAFFIN BAY       0236   62 68   20/ 19/ 23 1012.4
PORT ISABEL      0224   62 64   10/ 15/ 22 1010.8
$$




USA.gov is the U.S. government's official web portal to all federal, state and local government web resources and services.